Pagina principale
METAR-TAF:

METAR-TAF

Aeroporti :

Biserta, Tunisia

latitudine: 37-15N, longitudine: 009-48E, altezza: 5 m

Osservazione

Il bollettino è stato emesso 16 minuti fa, alle 03:00 UTC
Vento 16 kt da est/sud-est
Temperature 17°C
Umidità 77%
Pressione 999 hPa
Visibilità: 8000 m
Nubi sparse ad un'altezza di 2000 ft
Nubi sparse ad un'altezza di 3000 ft

METAR: DTTB 220300Z 12016KT 8000 SCT020 SCT030 17/13 Q0999

Ora: 04:16 (03:16 UTC)


TAF: mancante

Osservazioni e previsioni meteorologiche di più di 4000 aeroporti (messaggi METAR e TAF).

Le stazioni disponibili sono rappresentate dai dischi gialli e rossi sulla carta.

Puntare il mouse per vedere il nome della stazione.

Clicca sopra per visualizzare le osservazioni e previsioni meteorologiche.

Per cambiare la mappa : fare clic sui pulsanti verdi con una croce nera per ingrandire, il pulsante verde con un trattino per diminuire, o sulla freccia verde per le mappe adiacenti.


METAR-TAF: